Vorticity
12 12 11 10 10 9 8 8 7 7 6 6 6 6 7 8 8 8 8 9 9 9 9 8 8 7 6 6 6 6 6 6 7 7 7 6 6 5 5 5 4 4 4 4 4 4 5 5 5 5 5 4 4 5 6 6 6 6 6 6 6 5 4 4 3 3 2 2 2
11 11 11 10 10 10 9 9 8 7 6 6 6 7 7 8 8 8 8 9 9 9 8 8 8 7 7 7 7 6 6 7 7 7 7 7 7 6 6 5 5 5 4 4 4 4 4 5 5 5 5 5 5 5 5 6 6 6 6 6 6 5 5 4 4 3 3 2 2
10 10 10 10 10 10 10 9 9 8 7 6 6 6 7 7 8 8 8 8 8 8 8 9 9 9 8 7 7 7 7 7 7 7 7 7 7 7 7 6 6 5 5 5 4 4 4 5 5 5 5 5 6 5 5 6 6 6 6 6 6 6 6 5 5 4 3 2 2
12 12 12 12 12 12 12 11 10 8 7 6 6 6 6 7 7 8 7 7 8 9 10 9 9 9 8 7 7 7 7 7 7 7 7 7 7 7 7 7 7 7 6 6 5 5 5 5 5 5 6 5 6 6 6 7 7 7 7 7 7 7 6 6 5 5 4 3 2
14 13 14 14 14 14 13 12 11 9 8 7 6 6 6 7 7 7 8 8 9 9 9 8 8 8 8 8 7 7 7 8 8 7 7 7 7 7 7 7 8 7 7 7 6 6 5 5 5 6 6 6 6 6 6 7 7 7 7 7 7 7 7 6 6 5 4 3 2
13 13 13 14 15 15 15 14 13 11 9 7 7 6 6 7 7 8 8 9 8 8 8 8 8 8 8 8 8 8 7 7 7 7 7 7 7 7 7 7 8 8 8 8 7 7 7 6 6 6 6 6 6 6 7 7 7 8 8 8 8 8 7 7 6 6 5 3 2
12 13 13 13 14 15 15 15 14 12 11 9 8 7 7 7 8 8 8 7 7 7 8 8 8 8 8 8 8 8 7 7 6 6 6 6 6 6 6 7 7 8 8 8 8 8 8 7 7 7 6 6 6 6 7 7 8 8 8 9 9 9 9 8 7 7 6 4 3
12 12 12 13 14 14 15 15 15 14 12 11 10 9 8 8 8 7 7 7 8 8 8 8 9 9 8 8 7 7 7 6 6 6 6 5 6 6 6 7 7 8 8 8 8 8 8 8 8 7 7 7 7 7 7 7 7 8 9 9 10 10 10 9 9 8 8 6 5
12 12 12 12 13 14 15 16 15 14 14 13 12 10 9 8 8 7 8 8 8 8 7 9 9 9 9 8 8 7 7 6 5 5 5 5 5 6 6 7 7 8 8 9 9 9 9 9 9 9 8 8 8 8 7 7 8 8 9 9 10 10 10 10 10 10 9 8 7
12 12 12 12 13 14 14 15 15 16 15 14 13 12 10 9 9 9 9 8 7 8 8 9 9 9 9 9 8 7 7 6 6 5 5 5 6 6 6 7 8 8 9 9 10 10 10 9 10 10 10 10 9 9 9 9 9 10 9 9 9 9 9 10 10 10 10 9 9
13 13 13 13 13 13 14 14 15 16 17 16 15 13 12 11 10 9 8 7 7 8 9 9 9 9 9 9 8 8 7 7 6 6 6 6 7 7 7 8 8 9 9 10 10 10 10 10 11 11 11 12 11 10 10 10 10 10 9 8 8 7 7 7 8 8 9 9 10
15 15 14 14 14 14 14 15 16 18 18 18 16 15 13 11 10 9 8 8 9 9 9 9 9 10 10 9 9 9 9 8 8 8 8 8 8 9 9 10 10 10 11 11 11 11 11 12 12 12 11 11 11 10 10 10 10 9 9 8 7 6 6 6 7 7 7 8 9
18 18 18 18 17 18 18 19 20 20 20 19 17 14 12 10 9 8 8 9 9 9 9 10 10 11 11 10 10 10 10 10 10 10 10 10 11 11 11 12 12 12 12 12 12 12 12 11 10 10 8 7 7 7 8 8 8 8 8 7 6 6 6 7 7 7 7 8 10
20 21 22 22 22 22 23 23 23 22 21 19 16 13 11 10 9 9 9 9 10 10 10 10 10 11 11 11 11 11 11 11 11 12 12 12 12 13 13 13 13 13 13 12 12 11 10 8 7 7 6 5 5 5 5 6 6 7 7 6 6 6 7 8 7 7 7 9 10
21 23 24 25 25 26 26 25 23 21 19 16 13 11 10 9 9 9 9 9 9 9 9 9 10 10 10 11 11 11 12 12 12 13 13 13 13 13 13 13 12 12 11 10 9 8 7 6 5 5 4 4 4 4 4 5 6 6 6 6 5 6 7 8 7 7 8 8 8
18 21 22 23 24 24 24 22 19 17 15 12 10 9 8 8 8 8 8 8 8 8 9 9 10 10 10 11 12 12 13 13 13 13 13 13 12 12 11 11 10 9 8 7 7 6 6 6 6 5 5 5 4 4 5 5 5 5 5 5 4 5 6 6 5 5 4 4 4
16 18 20 20 21 20 19 16 14 12 11 9 8 7 7 7 7 8 8 9 9 9 10 11 11 12 12 13 13 13 13 12 12 12 11 11 10 9 9 8 8 7 7 6 6 6 6 7 7 6 6 6 6 6 6 6 5 5 4 4 3 3 3 2 2 1 1 1 2
15 16 17 18 17 16 14 11 10 9 8 7 7 7 8 8 9 9 10 10 11 11 12 12 12 12 12 12 11 11 10 10 9 9 8 8 7 7 6 6 5 5 5 6 6 6 6 6 6 7 7 7 7 7 6 6 5 5 4 4 4 3 3 3 3 4 4 5 6
15 15 16 16 15 14 12 10 9 9 9 9 9 9 10 10 11 11 11 11 11 11 11 11 10 10 10 9 8 7 7 7 6 6 6 5 5 5 5 4 4 5 5 5 6 6 6 6 6 7 7 7 7 6 6 6 6 6 6 7 7 7 8 8 8 9 10 10 10
13 14 14 14 14 13 12 11 11 10 10 10 11 11 10 10 10 10 9 9 9 9 8 8 7 7 6 6 5 5 4 4 4 4 4 4 4 4 4 4 5 5 5 6 6 6 6 6 7 7 7 6 6 6 6 7 7 9 10 10 11 11 11 12 12 12 13 13 13
11 12 13 13 13 12 12 11 10 10 10 10 9 9 8 7 7 7 7 6 6 6 5 5 4 4 3 3 3 3 3 3 3 4 4 4 5 5 5 6 6 6 7 7 7 7 7 7 7 7 7 6 7 7 8 9 10 11 12 13 13 13 13 13 13 14 14 14 15
9 10 11 11 11 11 10 9 9 8 8 7 7 6 6 5 5 5 5 4 4 4 4 4 3 3 3 3 4 4 5 6 6 7 7 7 7 8 8 8 9 9 9 9 9 9 9 9 9 9 9 9 10 10 11 12 12 13 13 14 14 14 14 14 14 15 15 16 16
7 8 9 9 9 9 9 8 7 7 7 6 6 5 5 5 5 5 5 5 5 5 5 6 6 7 7 8 8 9 9 9 9 9 8 8 8 8 8 9 9 10 10 10 10 10 10 10 10 11 11 12 13 13 13 14 14 14 14 14 14 14 14 14 15 15 16 16 16
6 7 7 8 8 8 7 7 7 6 6 6 6 6 6 6 7 7 7 8 8 9 10 10 10 10 10 9 9 8 7 6 6 6 5 5 6 6 7 7 8 9 9 9 9 10 10 10 10 11 12 13 13 14 14 14 14 14 14 14 14 14 14 15 15 16 16 16 16
6 6 6 7 7 7 7 6 6 7 7 7 8 8 9 10 10 10 11 11 11 10 9 9 8 7 6 4 4 3 2 2 2 3 3 4 5 6 6 7 8 8 8 9 9 9 10 10 10 11 12 12 13 13 14 14 14 14 14 14 14 14 15 15 16 16 17 17 16
5 6 6 6 6 6 6 7 7 8 9 9 10 11 12 12 11 10 9 8 7 6 4 3 2 2 1 1 1 1 2 3 3 4 4 5 6 6 7 8 8 8 9 9 9 9 10 10 11 11 12 12 13 13 13 14 14 14 14 14 14 14 15 15 16 16 17 16 15
5 5 6 6 7 7 8 9 10 10 11 11 11 11 9 8 7 5 4 3 2 1 0 -0 -0 -0 0 0 1 2 3 4 5 6 6 6 7 7 8 8 8 9 9 9 9 10 10 11 11 12 12 12 13 13 13 13 13 14 14 14 14 14 15 15 16 16 15 14 14
6 7 8 9 10 11 11 11 12 12 11 10 8 6 4 3 2 1 0 -0 -0 -1 -1 0 1 1 2 3 5 5 6 6 7 7 7 8 8 8 8 8 9 9 10 10 10 10 11 11 12 12 12 13 13 13 13 13 13 13 13 14 14 14 15 15 15 15 14 13 13
11 11 12 12 12 12 11 11 10 9 6 4 2 1 0 0 -0 -1 -1 -0 -0 1 2 3 3 4 5 7 7 7 7 7 7 7 8 8 9 9 9 9 10 10 10 10 10 11 11 11 12 12 12 13 13 12 12 12 12 12 13 13 14 14 14 14 14 14 13 12 12
13 13 12 12 11 10 10 8 6 3 1 0 -0 -0 -0 -0 -0 0 1 1 2 3 4 4 5 6 7 7 7 7 7 7 8 8 8 9 9 10 10 10 10 10 10 11 11 11 12 12 12 12 12 13 13 12 12 12 13 13 13 14 14 14 14 14 14 13 12 11 10
12 11 10 9 8 7 5 3 1 0 -0 -0 -0 -0 0 1 2 3 3 4 5 6 6 6 7 7 7 7 7 7 7 8 8 9 10 10 11 11 11 11 11 11 11 12 12 12 12 13 13 13 13 13 13 13 13 13 14 15 15 14 14 14 14 14 14 13 12 10 9
9 8 7 5 4 2 0 -1 -1 -1 -0 0 1 2 3 4 5 6 6 6 6 7 7 7 7 7 7 7 8 8 9 9 10 10 11 12 12 11 11 11 12 12 12 13 13 13 14 14 14 14 14 14 15 15 15 16 16 16 15 14 13 12 12 12 12 12 11 10 8
5 4 2 1 0 -1 -2 -2 -1 0 1 2 4 5 6 7 7 7 7 7 7 7 7 7 7 7 8 9 9 10 10 11 11 11 12 12 12 12 12 12 13 13 13 14 15 15 16 16 16 16 16 16 17 17 17 16 16 15 14 13 11 10 10 10 10 10 9 9 8
2 0 -1 -1 -1 -1 -1 1 2 4 5 6 7 8 8 7 7 7 7 7 6 7 7 7 8 9 10 10 10 11 11 12 12 12 12 12 12 12 13 14 14 15 16 16 17 18 18 18 18 18 17 17 17 16 16 14 13 12 11 10 9 9 9 10 10 10 9 8 8
-1 -1 -1 -0 1 2 3 5 7 7 8 8 8 8 7 7 6 6 6 6 7 7 8 9 10 10 11 11 11 12 12 12 12 13 13 13 13 14 15 16 16 17 18 18 19 19 18 18 17 16 16 15 14 14 13 12 11 10 9 9 9 9 9 9 9 9 9 9 9
-0 0 1 3 5 6 8 9 9 9 9 8 7 6 6 6 6 6 7 7 8 9 10 10 11 11 11 11 12 12 13 13 13 13 14 14 15 16 16 17 18 18 18 18 18 17 16 16 15 14 13 13 12 12 11 11 10 9 9 8 8 8 8 7 7 7 7 8 8
3 4 6 8 9 10 10 9 9 8 7 6 6 6 6 6 7 8 9 9 10 10 11 11 11 12 12 12 13 13 14 14 14 14 15 16 16 17 17 17 17 17 16 16 15 15 14 13 13 12 12 11 11 10 10 9 9 8 7 7 7 7 6 6 5 5 5 6 6
7 9 10 10 10 9 8 7 6 6 6 6 6 6 7 8 9 10 10 11 11 11 11 11 12 12 13 13 13 14 15 15 16 15 15 16 17 17 16 15 15 15 14 14 13 13 12 12 11 11 10 10 9 8 8 7 6 6 6 5 6 6 6 5 6 6 6 6 6
11 11 11 9 8 7 6 5 5 6 6 7 7 8 9 10 10 11 11 11 11 11 11 12 12 13 14 14 14 15 15 16 17 16 16 16 16 16 15 14 13 13 13 13 12 11 11 10 9 9 8 7 7 6 5 5 5 4 5 5 5 5 6 6 7 7 7 7 7
10 9 8 6 5 5 5 5 6 7 7 8 9 10 10 11 11 11 11 11 12 12 12 13 13 14 14 15 15 15 16 16 16 16 16 15 14 14 14 13 12 11 11 11 10 10 9 8 7 6 6 5 5 4 4 4 4 4 5 5 5 6 6 7 8 8 8 8 9
7 6 5 5 5 5 6 7 8 8 9 9 10 10 11 11 11 11 11 12 12 13 13 14 14 15 15 16 16 16 15 15 15 15 14 13 13 12 12 12 11 10 10 9 8 7 7 6 5 5 4 4 4 4 4 4 4 5 5 6 6 6 7 7 8 9 10 9 10
Height
3084 3085 3086 3086 3087 3088 3089 3090 3090 3091 3092 3092 3093 3093 3094 3094 3094 3095 3095 3095 3096 3096 3096 3096 3096 3097 3097 3097 3097 3098 3098 3098 3098 3099 3099 3099 3100 3100 3100 3100 3100 3101 3101 3101 3101 3101 3101 3101 3101 3101 3102 3102 3101 3101 3101 3101 3100 3100 3100 3100 3099 3099 3099 3099 3099 3099 3099 3098 3098
3082 3083 3084 3084 3085 3086 3086 3087 3088 3089 3090 3091 3091 3092 3092 3092 3092 3093 3093 3093 3094 3094 3094 3095 3095 3095 3095 3096 3096 3096 3096 3096 3096 3097 3097 3097 3098 3098 3098 3098 3098 3099 3099 3099 3099 3099 3099 3099 3099 3099 3100 3100 3100 3099 3099 3098 3098 3098 3097 3097 3097 3097 3097 3097 3097 3097 3097 3096 3096
3081 3081 3082 3082 3083 3084 3085 3085 3086 3087 3088 3089 3089 3090 3090 3090 3091 3091 3091 3092 3092 3092 3093 3093 3093 3093 3094 3094 3094 3094 3094 3095 3095 3095 3095 3096 3096 3096 3096 3096 3097 3097 3097 3097 3097 3097 3097 3097 3097 3097 3097 3098 3097 3097 3097 3096 3096 3096 3096 3095 3095 3095 3095 3095 3095 3095 3094 3094 3093
3079 3079 3080 3081 3081 3082 3083 3084 3084 3085 3086 3086 3087 3087 3088 3088 3089 3089 3090 3090 3090 3091 3091 3091 3091 3091 3091 3092 3092 3092 3092 3093 3093 3093 3094 3094 3094 3094 3095 3095 3095 3095 3095 3095 3095 3095 3095 3095 3095 3095 3095 3095 3095 3095 3095 3095 3094 3094 3093 3093 3093 3093 3093 3093 3093 3092 3092 3091 3091
3077 3077 3078 3079 3079 3080 3081 3081 3082 3083 3084 3084 3085 3085 3086 3086 3087 3087 3088 3088 3089 3089 3089 3089 3089 3089 3090 3090 3090 3091 3091 3091 3091 3091 3092 3092 3092 3093 3093 3093 3093 3093 3093 3093 3093 3093 3093 3093 3093 3093 3093 3093 3093 3093 3093 3093 3092 3092 3091 3091 3091 3091 3091 3091 3090 3090 3090 3089 3088
3075 3076 3076 3077 3077 3078 3079 3080 3080 3081 3081 3082 3082 3083 3084 3084 3085 3086 3086 3086 3087 3087 3087 3087 3087 3087 3088 3088 3088 3088 3089 3089 3089 3089 3090 3090 3091 3091 3091 3091 3091 3091 3091 3091 3091 3091 3091 3091 3091 3091 3091 3091 3091 3091 3091 3091 3090 3090 3090 3089 3089 3089 3089 3088 3088 3088 3087 3086 3086
3074 3074 3075 3075 3076 3076 3077 3077 3078 3079 3079 3080 3081 3081 3082 3083 3083 3084 3084 3085 3085 3085 3085 3085 3086 3086 3086 3086 3086 3087 3087 3087 3087 3088 3088 3088 3088 3089 3089 3089 3089 3089 3089 3089 3089 3089 3089 3089 3089 3089 3089 3089 3089 3089 3089 3089 3088 3088 3087 3087 3087 3087 3086 3086 3086 3086 3085 3084 3083
3072 3072 3073 3073 3074 3074 3075 3076 3076 3076 3077 3078 3079 3079 3080 3081 3081 3082 3082 3083 3083 3083 3084 3084 3084 3084 3084 3085 3085 3085 3085 3086 3086 3086 3086 3086 3086 3086 3087 3087 3087 3087 3087 3087 3087 3087 3087 3087 3087 3087 3087 3087 3087 3087 3087 3087 3086 3086 3085 3085 3085 3085 3084 3084 3083 3083 3082 3082 3081
3071 3071 3071 3072 3072 3073 3073 3074 3074 3075 3075 3076 3077 3078 3078 3079 3080 3080 3081 3081 3081 3081 3082 3082 3082 3082 3082 3083 3083 3083 3083 3084 3084 3084 3084 3084 3084 3085 3085 3085 3085 3085 3085 3085 3085 3085 3085 3085 3085 3085 3085 3085 3085 3085 3085 3085 3084 3083 3083 3083 3083 3082 3082 3081 3081 3081 3080 3079 3078
3069 3069 3070 3070 3071 3071 3071 3072 3072 3073 3073 3074 3075 3076 3076 3077 3078 3078 3079 3079 3079 3080 3080 3080 3081 3081 3081 3081 3081 3081 3081 3082 3082 3082 3082 3082 3082 3083 3083 3083 3083 3083 3083 3083 3083 3083 3083 3083 3083 3083 3083 3083 3083 3083 3082 3082 3081 3081 3081 3081 3081 3081 3080 3079 3079 3078 3078 3077 3076
3068 3068 3068 3068 3069 3069 3070 3070 3071 3071 3072 3073 3074 3074 3075 3076 3076 3077 3077 3077 3078 3078 3078 3079 3079 3079 3079 3079 3080 3080 3080 3080 3080 3080 3080 3081 3081 3081 3081 3081 3081 3081 3081 3081 3081 3081 3081 3081 3081 3081 3081 3081 3081 3080 3080 3080 3080 3079 3078 3078 3078 3078 3077 3077 3076 3076 3075 3074 3073
3066 3066 3066 3067 3067 3067 3068 3068 3069 3070 3070 3071 3072 3073 3074 3074 3075 3075 3075 3076 3076 3076 3077 3077 3077 3077 3077 3078 3078 3078 3078 3078 3078 3079 3079 3079 3079 3080 3080 3080 3080 3080 3080 3080 3079 3079 3079 3079 3079 3079 3079 3079 3078 3078 3077 3077 3077 3076 3076 3076 3075 3075 3074 3074 3073 3072 3072 3071 3071
3065 3065 3065 3065 3066 3066 3066 3067 3067 3068 3069 3070 3071 3071 3072 3073 3073 3073 3074 3074 3075 3075 3075 3076 3076 3076 3076 3076 3076 3076 3077 3077 3077 3077 3077 3078 3078 3078 3078 3078 3078 3078 3077 3077 3077 3077 3077 3077 3076 3076 3076 3076 3076 3075 3075 3075 3074 3074 3073 3073 3072 3072 3071 3071 3070 3070 3069 3068 3068
3063 3064 3064 3064 3064 3065 3065 3066 3066 3067 3068 3069 3069 3070 3071 3071 3071 3072 3073 3073 3074 3074 3074 3074 3074 3075 3075 3075 3075 3075 3075 3076 3076 3076 3076 3076 3076 3076 3076 3076 3076 3076 3076 3075 3075 3075 3075 3075 3074 3074 3073 3073 3073 3072 3072 3072 3071 3071 3071 3070 3069 3069 3068 3068 3067 3067 3066 3065 3065
3062 3062 3063 3063 3063 3064 3064 3065 3065 3066 3067 3067 3068 3069 3069 3070 3070 3071 3071 3072 3072 3073 3073 3073 3073 3073 3073 3074 3074 3074 3074 3074 3074 3074 3074 3074 3074 3074 3074 3074 3074 3074 3073 3073 3073 3073 3072 3072 3072 3071 3071 3071 3070 3070 3069 3069 3068 3068 3067 3067 3066 3066 3066 3065 3065 3064 3063 3062 3062
3062 3062 3062 3062 3062 3063 3063 3064 3065 3065 3066 3066 3067 3067 3068 3069 3069 3070 3070 3071 3071 3071 3072 3072 3072 3072 3072 3072 3072 3073 3073 3073 3073 3073 3073 3073 3072 3072 3072 3072 3072 3072 3071 3071 3071 3071 3070 3070 3070 3069 3068 3068 3067 3067 3067 3066 3066 3065 3065 3064 3063 3063 3063 3063 3062 3061 3060 3059 3059
3061 3061 3061 3061 3062 3062 3063 3063 3064 3065 3065 3066 3066 3067 3067 3068 3068 3069 3069 3070 3070 3071 3071 3071 3071 3071 3071 3071 3071 3071 3071 3071 3071 3071 3071 3071 3071 3071 3071 3071 3070 3070 3070 3069 3069 3069 3068 3068 3067 3066 3066 3066 3065 3064 3064 3064 3063 3062 3062 3061 3061 3061 3060 3060 3058 3058 3057 3056 3055
3061 3061 3061 3061 3062 3062 3062 3063 3063 3064 3065 3065 3066 3066 3067 3067 3068 3068 3069 3069 3069 3070 3070 3070 3070 3070 3070 3071 3071 3071 3071 3070 3070 3070 3070 3070 3070 3069 3069 3069 3069 3068 3068 3067 3067 3067 3066 3066 3065 3064 3064 3063 3062 3062 3061 3061 3060 3060 3059 3058 3058 3057 3057 3056 3055 3054 3054 3053 3052
3060 3061 3061 3061 3061 3062 3062 3063 3063 3064 3064 3065 3065 3066 3066 3067 3067 3067 3068 3068 3068 3069 3069 3069 3069 3069 3069 3069 3069 3069 3069 3069 3069 3069 3069 3068 3068 3068 3068 3067 3067 3066 3066 3066 3065 3065 3064 3063 3063 3062 3061 3061 3060 3059 3059 3058 3057 3056 3056 3055 3055 3054 3053 3053 3052 3051 3051 3050 3049
3060 3060 3061 3061 3061 3062 3062 3062 3063 3063 3064 3064 3065 3065 3066 3066 3066 3067 3067 3067 3067 3068 3068 3068 3068 3068 3068 3068 3068 3068 3068 3068 3068 3068 3067 3067 3067 3066 3066 3066 3065 3065 3064 3064 3063 3062 3062 3061 3060 3060 3059 3058 3057 3056 3056 3055 3054 3054 3053 3052 3052 3051 3051 3050 3049 3048 3047 3047 3046
3060 3060 3061 3061 3061 3061 3062 3062 3063 3063 3063 3064 3064 3065 3065 3065 3066 3066 3066 3066 3067 3067 3067 3067 3067 3067 3067 3067 3067 3067 3067 3067 3067 3066 3066 3066 3065 3065 3064 3064 3063 3063 3062 3061 3061 3060 3059 3058 3057 3057 3056 3055 3054 3054 3053 3052 3051 3051 3051 3050 3049 3049 3048 3047 3046 3046 3045 3044 3043
3060 3060 3060 3061 3061 3061 3062 3062 3062 3063 3063 3063 3064 3064 3065 3065 3065 3066 3066 3066 3066 3066 3066 3066 3066 3066 3066 3066 3066 3066 3066 3066 3065 3065 3065 3064 3064 3063 3062 3062 3061 3061 3060 3059 3058 3057 3056 3056 3055 3054 3053 3052 3052 3051 3051 3050 3049 3049 3048 3047 3046 3046 3045 3044 3043 3042 3041 3041 3040
3060 3060 3060 3061 3061 3061 3061 3062 3062 3062 3063 3063 3063 3064 3064 3064 3065 3065 3065 3065 3066 3066 3066 3066 3066 3066 3066 3066 3065 3065 3065 3064 3064 3063 3063 3062 3062 3061 3061 3060 3059 3058 3058 3057 3056 3055 3054 3053 3052 3052 3051 3050 3050 3049 3048 3047 3047 3046 3045 3045 3044 3043 3042 3041 3041 3040 3039 3038 3037
3059 3060 3060 3060 3061 3061 3061 3061 3062 3062 3062 3063 3063 3063 3063 3064 3064 3064 3064 3065 3065 3065 3065 3065 3065 3065 3064 3064 3064 3063 3063 3063 3062 3061 3061 3061 3060 3059 3059 3058 3057 3056 3055 3054 3053 3052 3051 3051 3050 3049 3049 3048 3047 3046 3046 3045 3044 3043 3043 3042 3041 3040 3039 3039 3038 3037 3036 3035 3034
3059 3059 3060 3060 3060 3060 3061 3061 3061 3061 3062 3062 3062 3062 3063 3063 3063 3063 3063 3063 3063 3064 3064 3063 3063 3063 3063 3063 3062 3062 3061 3061 3060 3060 3059 3058 3058 3057 3056 3056 3055 3054 3053 3052 3051 3050 3049 3048 3048 3047 3046 3046 3045 3044 3043 3042 3042 3041 3040 3039 3038 3037 3036 3036 3035 3034 3033 3032 3031
3058 3059 3059 3059 3060 3060 3060 3060 3061 3061 3061 3061 3061 3062 3062 3062 3062 3062 3062 3062 3062 3062 3062 3062 3062 3062 3061 3061 3061 3060 3059 3059 3058 3057 3057 3056 3055 3055 3054 3053 3052 3051 3050 3049 3048 3047 3047 3046 3045 3045 3044 3043 3042 3041 3041 3040 3039 3038 3037 3036 3036 3035 3034 3033 3032 3031 3031 3030 3029
3058 3058 3059 3059 3059 3059 3060 3060 3060 3060 3060 3061 3061 3061 3061 3061 3061 3061 3061 3061 3061 3061 3061 3061 3060 3060 3060 3059 3058 3058 3057 3056 3056 3055 3055 3054 3053 3052 3051 3051 3050 3048 3047 3046 3046 3045 3044 3043 3043 3042 3041 3041 3040 3039 3038 3037 3036 3036 3035 3034 3033 3032 3031 3030 3029 3028 3028 3027 3026
3057 3058 3058 3058 3058 3058 3059 3059 3059 3059 3059 3060 3060 3060 3060 3060 3060 3060 3060 3060 3060 3059 3059 3059 3058 3058 3058 3057 3056 3056 3055 3054 3054 3053 3052 3051 3051 3050 3049 3048 3047 3046 3045 3044 3043 3042 3042 3041 3040 3039 3039 3038 3037 3036 3035 3034 3033 3033 3032 3031 3030 3029 3028 3027 3027 3026 3025 3024 3023
3056 3057 3057 3057 3057 3058 3058 3058 3058 3058 3058 3059 3059 3059 3059 3059 3059 3058 3058 3058 3058 3058 3057 3057 3056 3056 3056 3055 3054 3053 3053 3052 3051 3051 3050 3049 3048 3047 3046 3045 3044 3043 3042 3041 3041 3040 3039 3038 3038 3037 3036 3035 3034 3033 3032 3031 3031 3030 3029 3028 3027 3026 3026 3025 3024 3023 3022 3021 3021
3056 3056 3056 3056 3056 3056 3057 3057 3057 3057 3057 3057 3057 3057 3057 3057 3057 3057 3057 3056 3056 3056 3055 3055 3054 3054 3053 3052 3052 3051 3050 3050 3049 3048 3047 3046 3046 3045 3044 3043 3042 3041 3040 3039 3038 3037 3036 3036 3035 3034 3033 3033 3032 3031 3030 3029 3028 3027 3026 3026 3025 3024 3023 3022 3021 3021 3020 3019 3018
3055 3055 3055 3055 3056 3056 3056 3056 3056 3056 3056 3056 3056 3056 3056 3056 3056 3055 3055 3055 3054 3054 3053 3053 3052 3051 3051 3050 3049 3049 3048 3047 3046 3046 3045 3044 3043 3042 3041 3040 3039 3038 3037 3037 3036 3035 3034 3033 3032 3031 3031 3030 3029 3028 3027 3026 3026 3025 3024 3023 3023 3022 3021 3020 3019 3018 3017 3016 3015
3054 3054 3054 3054 3055 3055 3055 3055 3055 3055 3055 3055 3055 3055 3054 3054 3054 3053 3053 3053 3052 3052 3051 3051 3050 3049 3048 3048 3047 3046 3046 3045 3044 3043 3042 3041 3040 3039 3038 3038 3037 3036 3035 3034 3033 3032 3032 3031 3030 3029 3028 3028 3027 3026 3025 3025 3024 3023 3022 3021 3021 3020 3019 3018 3017 3016 3015 3014 3013
3053 3053 3053 3053 3054 3054 3054 3054 3054 3054 3054 3054 3053 3053 3053 3052 3052 3052 3051 3051 3050 3050 3049 3048 3048 3047 3046 3046 3045 3044 3043 3042 3041 3041 3040 3039 3038 3037 3036 3035 3034 3033 3033 3032 3031 3030 3029 3028 3027 3027 3026 3026 3025 3024 3023 3022 3022 3021 3020 3019 3018 3017 3016 3015 3014 3013 3012 3011 3010
3052 3052 3052 3052 3053 3053 3053 3053 3052 3052 3052 3052 3052 3051 3051 3051 3050 3050 3049 3049 3048 3048 3047 3046 3046 3045 3044 3043 3042 3041 3041 3040 3039 3038 3037 3036 3036 3035 3034 3033 3032 3031 3031 3030 3029 3028 3027 3026 3026 3025 3024 3023 3023 3022 3021 3021 3020 3019 3018 3017 3016 3015 3014 3012 3011 3010 3009 3008 3007
3051 3051 3051 3051 3051 3051 3051 3051 3051 3051 3051 3051 3050 3050 3049 3049 3048 3048 3047 3047 3046 3046 3045 3044 3043 3043 3042 3041 3040 3039 3039 3038 3037 3036 3035 3034 3033 3032 3031 3031 3030 3029 3028 3027 3026 3026 3025 3024 3023 3022 3022 3021 3021 3020 3019 3019 3018 3017 3016 3015 3013 3012 3011 3010 3008 3007 3006 3005 3004
3050 3051 3051 3051 3050 3050 3050 3050 3050 3050 3049 3049 3048 3048 3048 3047 3046 3046 3046 3045 3044 3044 3043 3042 3041 3041 3040 3039 3038 3037 3036 3036 3035 3034 3033 3032 3031 3030 3030 3029 3028 3027 3026 3026 3025 3024 3023 3022 3021 3020 3020 3019 3018 3018 3017 3016 3016 3015 3014 3012 3011 3010 3008 3007 3006 3004 3003 3002 3001
3049 3049 3049 3049 3049 3049 3049 3049 3048 3048 3048 3047 3047 3046 3046 3045 3045 3044 3044 3043 3042 3041 3041 3040 3039 3038 3038 3037 3036 3036 3035 3034 3033 3032 3031 3030 3029 3028 3027 3027 3026 3025 3024 3023 3022 3021 3021 3020 3019 3018 3017 3017 3016 3016 3015 3014 3013 3012 3011 3010 3009 3007 3006 3005 3003 3001 3000 2999 2997
3048 3048 3048 3048 3048 3048 3047 3047 3047 3046 3046 3046 3045 3045 3044 3044 3043 3042 3041 3041 3040 3040 3039 3038 3037 3036 3036 3035 3034 3033 3032 3032 3031 3030 3029 3028 3027 3026 3026 3025 3024 3023 3022 3021 3021 3020 3019 3018 3017 3016 3016 3015 3014 3013 3013 3012 3011 3010 3008 3007 3006 3004 3003 3001 3000 2999 2997 2996 2994
3047 3047 3047 3046 3046 3046 3046 3046 3045 3045 3045 3044 3043 3043 3042 3041 3041 3040 3040 3039 3038 3037 3037 3036 3035 3035 3034 3033 3032 3031 3031 3030 3029 3028 3027 3026 3026 3025 3024 3023 3022 3022 3021 3020 3019 3018 3017 3016 3016 3015 3014 3013 3012 3011 3010 3009 3008 3006 3005 3004 3002 3001 3000 2998 2997 2996 2994 2992 2991
3046 3046 3046 3045 3045 3045 3045 3044 3044 3043 3043 3042 3041 3041 3040 3040 3039 3038 3038 3037 3036 3036 3035 3034 3033 3032 3032 3031 3030 3029 3028 3028 3027 3026 3025 3025 3024 3023 3023 3022 3021 3020 3019 3018 3017 3016 3016 3015 3014 3013 3012 3011 3010 3009 3008 3006 3005 3004 3002 3001 2999 2998 2996 2995 2994 2992 2991 2989 2987
3044 3044 3044 3044 3044 3043 3043 3042 3042 3041 3041 3040 3040 3039 3038 3038 3037 3036 3036 3035 3034 3033 3033 3032 3031 3031 3030 3029 3028 3027 3027 3026 3025 3025 3024 3023 3022 3022 3021 3020 3019 3019 3018 3017 3016 3015 3014 3013 3011 3011 3010 3009 3007 3006 3005 3004 3002 3001 2999 2998 2996 2995 2993 2992 2991 2989 2987 2986 2984